TimeAEST,TemperatureF,Dew PointF,Humidity,Sea Level PressureIn,VisibilityMPH,Wind Direction,Wind SpeedMPH,Gust SpeedMPH,PrecipitationIn,Events,Conditions,WindDirDegrees,DateUTC
12:00 AM,74,70,85,29.79,,Calm,Calm,,,,,,2013-01-17 14:00:00
12:00 AM,75.2,69.8,83,29.77,6.2,Calm,Calm,-,N/A,,Mostly Cloudy,0,2013-01-17 14:00:00
12:30 AM,73.4,71.6,94,29.77,6.2,Calm,Calm,-,N/A,,Mostly Cloudy,0,2013-01-17 14:30:00
1:00 AM,73,71,89,29.77,,West,4.6,,,,,280,2013-01-17 15:00:00
1:00 AM,73.4,69.8,88,29.74,6.2,West,4.6,-,N/A,,Mostly Cloudy,280,2013-01-17 15:00:00
1:30 AM,71.6,69.8,94,29.74,6.2,Calm,Calm,-,N/A,,Mostly Cloudy,0,2013-01-17 15:30:00
2:00 AM,71.6,69.8,94,29.74,6.2,Calm,Calm,-,N/A,,Mostly Cloudy,0,2013-01-17 16:00:00
2:30 AM,71.6,69.8,94,29.74,6.2,Calm,Calm,-,N/A,,Mostly Cloudy,0,2013-01-17 16:30:00
3:00 AM,73,71,89,29.73,,South,1.2,,,,,190,2013-01-17 17:00:00
3:00 AM,73.4,69.8,88,29.71,6.2,South,1.2,-,N/A,,Mostly Cloudy,190,2013-01-17 17:00:00
3:30 AM,75.2,69.8,83,29.71,6.2,Calm,Calm,-,N/A,,Mostly Cloudy,0,2013-01-17 17:30:00
4:00 AM,76,69,75,29.74,,WSW,2.3,,,,,240,2013-01-17 18:00:00
4:00 AM,75.2,69.8,83,29.74,6.2,WSW,2.3,-,N/A,,Mostly Cloudy,240,2013-01-17 18:00:00
4:30 AM,75.2,69.8,83,29.74,6.2,South,4.6,-,N/A,,Mostly Cloudy,170,2013-01-17 18:30:00
5:00 AM,73.4,71.6,94,29.74,6.2,West,3.5,-,N/A,,Mostly Cloudy,280,2013-01-17 19:00:00
5:30 AM,73.4,71.6,94,29.74,6.2,Calm,Calm,-,N/A,,Mostly Cloudy,0,2013-01-17 19:30:00
6:00 AM,74,71,87,29.77,19,Calm,Calm,,,,Partly Cloudy,,2013-01-17 20:00:00
6:00 AM,73.4,71.6,94,29.77,6.2,Calm,Calm,-,N/A,,Scattered Clouds,0,2013-01-17 20:00:00
6:30 AM,75.2,71.6,89,29.77,6.2,West,3.5,-,N/A,,Mostly Cloudy,280,2013-01-17 20:30:00
7:00 AM,76,72,84,29.81,,NW,4.6,,,,,310,2013-01-17 21:00:00
7:00 AM,77.0,71.6,83,29.80,6.2,NW,4.6,-,N/A,Rain,Light Rain Showers,310,2013-01-17 21:00:00
7:30 AM,78.8,73.4,83,29.80,6.2,Calm,Calm,-,N/A,,Mostly Cloudy,0,2013-01-17 21:30:00
8:00 AM,80.6,69.8,70,29.80,6.2,ESE,2.3,-,N/A,,Mostly Cloudy,110,2013-01-17 22:00:00
8:30 AM,82.4,69.8,66,29.83,6.2,West,3.5,-,N/A,,Mostly Cloudy,270,2013-01-17 22:30:00
9:00 AM,84,70,54,29.83,19,ESE,4.6,,,,Partly Cloudy,110,2013-01-17 23:00:00
9:00 AM,84.2,69.8,62,29.83,6.2,ESE,4.6,-,N/A,,Mostly Cloudy,110,2013-01-17 23:00:00
9:30 AM,86.0,69.8,58,29.83,6.2,East,6.9,-,N/A,,Mostly Cloudy,100,2013-01-17 23:30:00
10:00 AM,82,73,68,29.83,,North,9.2,,,,,350,2013-01-18 00:00:00
10:00 AM,82.4,73.4,74,29.80,6.2,North,9.2,-,N/A,,Mostly Cloudy,350,2013-01-18 00:00:00
10:30 AM,84.2,71.6,66,29.80,6.2,NNE,5.8,-,N/A,,Mostly Cloudy,30,2013-01-18 00:30:00
11:00 AM,86.0,71.6,62,29.80,6.2,NNE,6.9,-,N/A,,Mostly Cloudy,30,2013-01-18 01:00:00
12:00 PM,84,70,55,29.78,19,East,5.8,,,,Partly Cloudy,80,2013-01-18 02:00:00
12:00 PM,84.2,69.8,62,29.77,6.2,East,5.8,-,N/A,,Mostly Cloudy,80,2013-01-18 02:00:00
12:30 PM,86.0,71.6,62,29.77,6.2,NE,8.1,-,N/A,,Mostly Cloudy,40,2013-01-18 02:30:00
1:00 PM,87,72,51,29.76,,ENE,8.1,,,,,60,2013-01-18 03:00:00
1:00 PM,86.0,71.6,62,29.74,6.2,ENE,8.1,-,N/A,,Mostly Cloudy,60,2013-01-18 03:00:00
1:30 PM,84.2,71.6,66,29.74,6.2,ENE,9.2,-,N/A,,Mostly Cloudy,70,2013-01-18 03:30:00
2:00 PM,86.0,71.6,62,29.71,6.2,NE,9.2,-,N/A,,Mostly Cloudy,40,2013-01-18 04:00:00
2:30 PM,86.0,71.6,62,29.71,6.2,NE,10.4,-,N/A,,Mostly Cloudy,50,2013-01-18 04:30:00
3:00 PM,85,71,54,29.72,19,NE,10.4,,,,Partly Cloudy,50,2013-01-18 05:00:00
3:00 PM,86.0,71.6,62,29.71,6.2,NE,10.4,-,N/A,,Mostly Cloudy,50,2013-01-18 05:00:00
3:30 PM,86.0,71.6,62,29.71,6.2,ENE,9.2,-,N/A,,Mostly Cloudy,60,2013-01-18 05:30:00
4:00 PM,85,71,55,29.71,,NE,9.2,,,,,50,2013-01-18 06:00:00
4:00 PM,86.0,71.6,62,29.71,6.2,NE,9.2,-,N/A,,Mostly Cloudy,50,2013-01-18 06:00:00
4:30 PM,84.2,71.6,66,29.71,6.2,NE,8.1,-,N/A,,Mostly Cloudy,50,2013-01-18 06:30:00
5:00 PM,84.2,71.6,66,29.71,6.2,NE,6.9,-,N/A,,Mostly Cloudy,50,2013-01-18 07:00:00
5:30 PM,84.2,71.6,66,29.71,6.2,NE,5.8,-,N/A,,Mostly Cloudy,50,2013-01-18 07:30:00
6:00 PM,83,72,62,29.74,,ENE,6.9,,,,,60,2013-01-18 08:00:00
6:00 PM,82.4,71.6,70,29.74,6.2,ENE,6.9,-,N/A,,Overcast,60,2013-01-18 08:00:00
6:30 PM,82.4,71.6,70,29.74,6.2,NE,5.8,-,N/A,,Overcast,50,2013-01-18 08:30:00
7:00 PM,83,72,62,29.76,,ENE,5.8,,,,,70,2013-01-18 09:00:00
7:00 PM,82.4,71.6,70,29.74,6.2,ENE,5.8,-,N/A,,Overcast,70,2013-01-18 09:00:00
7:30 PM,82.4,73.4,74,29.74,6.2,NE,2.3,-,N/A,,Overcast,50,2013-01-18 09:30:00
8:00 PM,82.4,73.4,74,29.74,6.2,North,1.2,-,N/A,,Mostly Cloudy,10,2013-01-18 10:00:00
8:30 PM,80.6,73.4,79,29.77,6.2,ENE,8.1,-,N/A,,Scattered Clouds,70,2013-01-18 10:30:00
9:00 PM,82,73,68,29.78,,NE,4.6,,,,Overcast,50,2013-01-18 11:00:00
9:00 PM,82.4,73.4,74,29.77,6.2,NE,4.6,-,N/A,Rain,Light Rain Showers,50,2013-01-18 11:00:00
9:30 PM,80.6,73.4,79,29.77,6.2,NNE,6.9,-,N/A,,Mostly Cloudy,30,2013-01-18 11:30:00
10:00 PM,80,73,75,29.80,,East,10.4,,,,,90,2013-01-18 12:00:00
10:00 PM,80.6,73.4,79,29.77,6.2,East,10.4,-,N/A,Rain,Light Rain Showers,90,2013-01-18 12:00:00
10:30 PM,78.8,73.4,83,29.77,6.2,SSE,6.9,-,N/A,,Scattered Clouds,150,2013-01-18 12:30:00
11:30 PM,78.8,73.4,83,29.77,6.2,SE,6.9,-,N/A,,Mostly Cloudy,140,2013-01-18 13:30:00